Location: Stara Lesna
(49.1528°N, 20.2911°E)
Time: 03:55:37
(UTC+02:00)

Unknown - Pass Details

Date: 21 September 2019
Orbit: 549 x 551 km, 53.0° (Epoch: 17 October)

Event Time Altitude Azimuth Distance (km) Brightness Sun altitude
Exits shadow 05:07:46 19° 273° (W) 1,336 5.0 -13.0°
Maximum altitude 05:10:34 57° 347° (NNW) 654 4.0 -12.5°
Drops below altitude 10° 05:14:40 10° 67° (ENE) 1,828 7.8 -11.9°
Sets 05:16:56 0° 72° (ENE) 2,723 9.4 -11.5°
